| time (UTC) | temp C | wind direction | speed KPH | gust KPH | rain 1hr cm | rain 24hr cm | rain mn cm | humidity % | barometer mb |
| 20260504060150 | -1 | 316 | 0.0 | 0.0 | 0.00 | 0.00 | 0.00 | 97 | 1008.3 |
| 20260504050618 | -1 | 314 | 0.0 | 0.0 | 0.00 | 0.00 | 0.00 | 96 | 1008.3 |
| 20260504050115 | -1 | 307 | 0.0 | 0.0 | 0.00 | 0.00 | 0.00 | 96 | 1008.2 |
| 20260504045612 | -1 | 299 | 0.0 | 0.0 | 0.00 | 0.00 | 0.00 | 96 | 1008.3 |
| 20260504045107 | -1 | 292 | 0.0 | 0.0 | 0.00 | 0.00 | 0.00 | 96 | 1008.3 |
| 20260504044605 | -1 | 300 | 0.0 | 0.0 | 0.00 | 0.00 | 0.00 | 96 | 1008.1 |
| 20260504044102 | -1 | 292 | 0.0 | 0.0 | 0.00 | 0.00 | 0.00 | 96 | 1008.2 |
| 20260504043559 | -1 | 331 | 0.0 | 0.0 | 0.00 | 0.00 | 0.00 | 96 | 1008.1 |
| 20260504043055 | -1 | 331 | 0.0 | 0.0 | 0.00 | 0.00 | 0.00 | 95 | 1008.1 |
| 20260504042553 | -1 | 331 | 0.0 | 0.0 | 0.00 | 0.00 | 0.00 | 95 | 1008.1 |
| 20260504042050 | -1 | 307 | 0.0 | 0.0 | 0.00 | 0.00 | 0.00 | 95 | 1008.1 |
| 20260504041545 | -1 | 318 | 0.0 | 0.0 | 0.00 | 0.00 | 0.00 | 95 | 1008.0 |
| 20260504041042 | 0 | 290 | 0.0 | 0.0 | 0.00 | 0.00 | 0.00 | 95 | 1008.1 |
| 20260504040539 | 0 | 303 | 0.0 | 0.0 | 0.00 | 0.00 | 0.00 | 94 | 1008.0 |
| 20260504040036 | 0 | 297 | 0.0 | 0.0 | 0.00 | 0.00 | 0.00 | 94 | 1007.9 |
| 20260504035532 | 0 | 294 | 0.0 | 0.0 | 0.00 | 0.00 | 0.00 | 94 | 1008.0 |
| 20260504035029 | 0 | 294 | 0.0 | 0.0 | 0.00 | 0.00 | 0.00 | 94 | 1008.0 |
| 20260504034527 | -1 | 292 | 0.0 | 0.0 | 0.00 | 0.00 | 0.00 | 93 | 1008.0 |
| 20260504034024 | 0 | 293 | 0.0 | 0.0 | 0.00 | 0.00 | 0.00 | 93 | 1007.8 |
| 20260504033522 | 0 | 290 | 0.0 | 0.0 | 0.00 | 0.00 | 0.00 | 93 | 1007.9 |
| 20260504033019 | 0 | 290 | 0.0 | 0.0 | 0.00 | 0.00 | 0.00 | 92 | 1007.7 |
| 20260504032515 | 0 | 296 | 0.0 | 0.0 | 0.00 | 0.00 | 0.00 | 92 | 1008.0 |
| 20260504032012 | 0 | 296 | 0.0 | 0.0 | 0.00 | 0.00 | 0.00 | 92 | 1007.8 |
| 20260504031509 | 0 | 299 | 0.0 | 0.0 | 0.00 | 0.00 | 0.00 | 91 | 1007.9 |
| 20260504031005 | 0 | 327 | 0.0 | 0.0 | 0.00 | 0.00 | 0.00 | 90 | 1008.0 |
| 20260504030503 | 0 | 280 | 0.0 | 0.0 | 0.00 | 0.00 | 0.00 | 91 | 1008.0 |
| 20260504025958 | 0 | 310 | 0.0 | 0.0 | 0.00 | 0.00 | 0.00 | 90 | 1007.8 |
| 20260504025456 | 0 | 294 | 0.0 | 0.0 | 0.00 | 0.00 | 0.00 | 89 | 1007.8 |
| 20260504024952 | 0 | 298 | 0.0 | 0.0 | 0.00 | 0.00 | 0.00 | 89 | 1007.9 |
| 20260504024449 | 1 | 303 | 0.0 | 0.0 | 0.00 | 0.00 | 0.00 | 88 | 1007.8 |
| 20260504023947 | 1 | 311 | 0.0 | 0.0 | 0.00 | 0.00 | 0.00 | 87 | 1007.7 |
| 20260504023444 | 1 | 319 | 0.0 | 0.0 | 0.00 | 0.00 | 0.00 | 87 | 1007.6 |
| 20260504022938 | 1 | 286 | 0.0 | 0.0 | 0.00 | 0.00 | 0.00 | 87 | 1007.8 |
| 20260504022435 | 1 | 297 | 0.0 | 0.0 | 0.00 | 0.00 | 0.00 | 86 | 1007.8 |
| 20260504021932 | 1 | 288 | 0.0 | 0.0 | 0.00 | 0.00 | 0.00 | 86 | 1007.8 |
| 20260504021429 | 1 | 316 | 0.0 | 0.0 | 0.00 | 0.00 | 0.00 | 85 | 1007.9 |
| 20260504020926 | 2 | 300 | 0.0 | 0.0 | 0.00 | 0.00 | 0.00 | 83 | 1007.9 |
| 20260504020423 | 2 | 294 | 0.0 | 0.0 | 0.00 | 0.00 | 0.00 | 82 | 1007.8 |
| 20260504015920 | 2 | 296 | 0.0 | 0.0 | 0.00 | 0.00 | 0.00 | 81 | 1007.7 |
| 20260504015416 | 2 | 292 | 0.0 | 0.0 | 0.00 | 0.00 | 0.00 | 80 | 1007.8 |
| 20260504014912 | 2 | 288 | 0.0 | 0.0 | 0.00 | 0.00 | 0.00 | 80 | 1007.7 |
| 20260504014408 | 2 | 296 | 0.0 | 0.0 | 0.00 | 0.00 | 0.00 | 80 | 1007.9 |
| 20260504013905 | 3 | 299 | 0.0 | 0.0 | 0.00 | 0.00 | 0.00 | 78 | 1007.8 |
| 20260504013403 | 3 | 322 | 0.0 | 0.0 | 0.00 | 0.00 | 0.00 | 78 | 1007.5 |
| 20260504012859 | 3 | 299 | 0.0 | 0.0 | 0.00 | 0.00 | 0.00 | 77 | 1007.8 |
| 20260504012357 | 3 | 316 | 0.0 | 0.0 | 0.00 | 0.00 | 0.00 | 75 | 1007.7 |
| 20260504011854 | 4 | 312 | 0.0 | 0.0 | 0.00 | 0.00 | 0.00 | 72 | 1007.6 |
| 20260504011351 | 5 | 305 | 0.0 | 0.0 | 0.00 | 0.00 | 0.00 | 71 | 1007.6 |
| 20260504010847 | 5 | 283 | 0.0 | 0.0 | 0.00 | 0.00 | 0.00 | 66 | 1007.4 |
| 20260504010343 | 6 | 278 | 0.0 | 0.0 | 0.00 | 0.00 | 0.00 | 64 | 1007.4 |
| 20260504005839 | 6 | 267 | 0.0 | 0.0 | 0.00 | 0.00 | 0.00 | 63 | 1007.2 |
| 20260504005336 | 6 | 268 | 0.0 | 0.0 | 0.00 | 0.00 | 0.00 | 63 | 1007.3 |
| 20260504004834 | 6 | 261 | 0.0 | 0.0 | 0.00 | 0.00 | 0.00 | 61 | 1007.3 |
| 20260504004331 | 7 | 284 | 1.6 | 3.2 | 0.00 | 0.00 | 0.00 | 61 | 1007.3 |
| 20260504003827 | 7 | 259 | 3.2 | 3.2 | 0.00 | 0.00 | 0.00 | 60 | 1007.1 |
| 20260504003325 | 7 | 264 | 1.6 | 3.2 | 0.00 | 0.00 | 0.00 | 60 | 1007.1 |
| 20260504002821 | 7 | 272 | 0.0 | 1.6 | 0.00 | 0.00 | 0.00 | 59 | 1006.9 |
| 20260504002318 | 7 | 298 | 3.2 | 4.8 | 0.00 | 0.00 | 0.00 | 58 | 1006.8 |
| 20260504001816 | 7 | 244 | 1.6 | 1.6 | 0.00 | 0.00 | 0.00 | 57 | 1006.6 |
| 20260504001313 | 7 | 300 | 1.6 | 3.2 | 0.00 | 0.00 | 0.00 | 57 | 1006.7 |
| 20260504000810 | 7 | 288 | 3.2 | 4.8 | 0.00 | 0.00 | 0.00 | 57 | 1006.5 |
| 20260504000307 | 7 | 282 | 3.2 | 4.8 | 0.00 | 0.00 | 0.00 | 56 | 1006.4 |
| 20260503235804 | 8 | 311 | 4.8 | 4.8 | 0.00 | 0.00 | 0.00 | 55 | 1006.4 |
| 20260503235304 | 8 | 260 | 3.2 | 3.2 | 0.00 | 0.00 | 0.00 | 56 | 1006.5 |
| 20260503234759 | 8 | 292 | 3.2 | 4.8 | 0.00 | 0.00 | 0.00 | 55 | 1006.3 |
| 20260503234257 | 8 | 235 | 4.8 | 4.8 | 0.00 | 0.00 | 0.00 | 55 | 1006.2 |
| 20260503233754 | 8 | 284 | 6.4 | 9.7 | 0.00 | 0.00 | 0.00 | 53 | 1006.0 |
| 20260503233249 | 8 | 264 | 1.6 | 3.2 | 0.00 | 0.00 | 0.00 | 56 | 1005.9 |
| 20260503232747 | 8 | 276 | 1.6 | 1.6 | 0.00 | 0.00 | 0.00 | 55 | 1005.8 |
| 20260503232244 | 8 | 292 | 1.6 | 3.2 | 0.00 | 0.00 | 0.00 | 55 | 1005.7 |
| 20260503231742 | 9 | 299 | 1.6 | 1.6 | 0.00 | 0.00 | 0.00 | 54 | 1005.6 |
| 20260503231239 | 9 | 288 | 3.2 | 4.8 | 0.00 | 0.00 | 0.00 | 53 | 1005.6 |
| 20260503230734 | 9 | 316 | 4.8 | 4.8 | 0.00 | 0.00 | 0.00 | 53 | 1005.5 |
| 20260503230232 | 10 | 268 | 1.6 | 1.6 | 0.00 | 0.00 | 0.00 | 53 | 1005.5 |
| 20260503225724 | 10 | 263 | 6.4 | 9.7 | 0.00 | 0.00 | 0.00 | 51 | 1005.3 |
| 20260503225224 | 10 | 314 | 4.8 | 4.8 | 0.00 | 0.00 | 0.00 | 52 | 1005.4 |
| 20260503224721 | 10 | 258 | 3.2 | 6.4 | 0.00 | 0.00 | 0.00 | 51 | 1005.1 |
| 20260503224219 | 10 | 245 | 4.8 | 9.7 | 0.00 | 0.00 | 0.00 | 50 | 1005.3 |
| 20260503223716 | 10 | 229 | 1.6 | 3.2 | 0.00 | 0.00 | 0.00 | 51 | 1005.0 |
| 20260503223214 | 10 | 287 | 9.7 | 14.5 | 0.00 | 0.00 | 0.00 | 49 | 1005.0 |
| 20260503222710 | 10 | 297 | 4.8 | 6.4 | 0.00 | 0.00 | 0.00 | 50 | 1004.9 |
| 20260503222208 | 10 | 302 | 3.2 | 4.8 | 0.00 | 0.00 | 0.00 | 50 | 1004.8 |
| 20260503221706 | 10 | 192 | 14.5 | 17.7 | 0.00 | 0.00 | 0.00 | 51 | 1004.8 |
| 20260503221203 | 10 | 269 | 3.2 | 3.2 | 0.00 | 0.00 | 0.00 | 51 | 1004.7 |
| 20260503220700 | 10 | 354 | 6.4 | 9.7 | 0.00 | 0.00 | 0.00 | 51 | 1004.7 |
| 20260503220156 | 10 | 201 | 6.4 | 11.3 | 0.00 | 0.00 | 0.00 | 51 | 1004.7 |
| 20260503215653 | 10 | 256 | 1.6 | 3.2 | 0.00 | 0.00 | 0.00 | 53 | 1004.7 |
| 20260503215149 | 10 | 231 | 1.6 | 1.6 | 0.00 | 0.00 | 0.00 | 55 | 1004.5 |
| 20260503214649 | 10 | 276 | 3.2 | 3.2 | 0.00 | 0.00 | 0.00 | 54 | 1004.6 |
| 20260503214144 | 10 | 287 | 8.0 | 12.9 | 0.00 | 0.00 | 0.00 | 52 | 1004.6 |
| 20260503213638 | 10 | 273 | 6.4 | 11.3 | 0.00 | 0.00 | 0.00 | 54 | 1004.5 |
| 20260503213134 | 10 | 78 | 3.2 | 3.2 | 0.00 | 0.00 | 0.00 | 55 | 1004.6 |
| 20260503212631 | 10 | 26 | 4.8 | 6.4 | 0.00 | 0.00 | 0.00 | 55 | 1004.6 |
| 20260503212129 | 10 | 283 | 8.0 | 12.9 | 0.00 | 0.00 | 0.00 | 54 | 1004.4 |
| 20260503211627 | 10 | 288 | 4.8 | 6.4 | 0.00 | 0.00 | 0.00 | 54 | 1004.3 |
| 20260503211121 | 10 | 288 | 1.6 | 3.2 | 0.00 | 0.00 | 0.00 | 55 | 1004.2 |
| 20260503210618 | 10 | 0 | 3.2 | 6.4 | 0.00 | 0.00 | 0.00 | 55 | 1004.1 |
| 20260503210115 | 10 | 33 | 3.2 | 3.2 | 0.00 | 0.00 | 0.00 | 54 | 1004.2 |
| 20260503205611 | 10 | 289 | 0.0 | 1.6 | 0.00 | 0.00 | 0.00 | 55 | 1004.2 |
| 20260503205107 | 10 | 38 | 11.3 | 12.9 | 0.00 | 0.00 | 0.00 | 52 | 1004.1 |
| 20260503204604 | 10 | 350 | 8.0 | 14.5 | 0.00 | 0.00 | 0.00 | 53 | 1004.2 |
| 20260503204101 | 10 | 45 | 3.2 | 4.8 | 0.00 | 0.00 | 0.00 | 54 | 1004.2 |
| 20260503203558 | 10 | 338 | 4.8 | 6.4 | 0.00 | 0.00 | 0.00 | 53 | 1004.2 |
| 20260503203056 | 11 | 334 | 6.4 | 9.7 | 0.00 | 0.00 | 0.00 | 53 | 1004.1 |
| 20260503202553 | 11 | 170 | 6.4 | 12.9 | 0.00 | 0.00 | 0.00 | 53 | 1004.3 |
| 20260503202051 | 11 | 38 | 9.7 | 22.5 | 0.00 | 0.00 | 0.00 | 52 | 1004.1 |
| 20260503201549 | 11 | 299 | 4.8 | 12.9 | 0.00 | 0.00 | 0.00 | 53 | 1004.1 |
| 20260503201046 | 11 | 267 | 1.6 | 3.2 | 0.00 | 0.00 | 0.00 | 54 | 1004.2 |
| 20260503200542 | 10 | 339 | 3.2 | 4.8 | 0.00 | 0.00 | 0.00 | 54 | 1004.1 |
| 20260503200038 | 10 | 355 | 1.6 | 4.8 | 0.00 | 0.00 | 0.00 | 52 | 1004.3 |
| 20260503195536 | 11 | 309 | 6.4 | 9.7 | 0.00 | 0.00 | 0.00 | 53 | 1004.3 |
| 20260503195027 | 11 | 256 | 6.4 | 6.4 | 0.00 | 0.00 | 0.00 | 54 | 1004.3 |
| 20260503194525 | 11 | 29 | 6.4 | 9.7 | 0.00 | 0.00 | 0.00 | 53 | 1004.2 |
| 20260503194024 | 12 | 335 | 4.8 | 6.4 | 0.00 | 0.00 | 0.00 | 54 | 1004.1 |
| 20260503193521 | 11 | 287 | 8.0 | 9.7 | 0.00 | 0.00 | 0.00 | 56 | 1004.3 |
| 20260503193017 | 11 | 312 | 6.4 | 9.7 | 0.00 | 0.00 | 0.00 | 54 | 1004.4 |
| 20260503192513 | 11 | 298 | 4.8 | 9.7 | 0.00 | 0.00 | 0.00 | 56 | 1004.4 |
| 20260503192009 | 11 | 292 | 1.6 | 1.6 | 0.00 | 0.00 | 0.00 | 57 | 1004.4 |
| 20260503191506 | 11 | 319 | 6.4 | 14.5 | 0.00 | 0.00 | 0.00 | 57 | 1004.4 |
| 20260503191003 | 11 | 227 | 6.4 | 9.7 | 0.00 | 0.00 | 0.00 | 57 | 1004.5 |
| 20260503190459 | 11 | 269 | 3.2 | 4.8 | 0.00 | 0.00 | 0.00 | 58 | 1004.6 |
| 20260503185956 | 11 | 234 | 6.4 | 11.3 | 0.00 | 0.00 | 0.00 | 57 | 1004.4 |
| 20260503185453 | 10 | 289 | 3.2 | 4.8 | 0.00 | 0.00 | 0.00 | 60 | 1004.4 |
| 20260503184952 | 10 | 231 | 1.6 | 1.6 | 0.00 | 0.00 | 0.00 | 60 | 1004.5 |
| 20260503184449 | 10 | 300 | 4.8 | 9.7 | 0.00 | 0.00 | 0.00 | 59 | 1004.5 |
| 20260503183945 | 10 | 285 | 3.2 | 4.8 | 0.00 | 0.00 | 0.00 | 58 | 1004.4 |
| 20260503183442 | 10 | 27 | 4.8 | 6.4 | 0.00 | 0.00 | 0.00 | 57 | 1004.4 |
| 20260503182939 | 11 | 282 | 9.7 | 12.9 | 0.00 | 0.00 | 0.00 | 58 | 1004.4 |
| 20260503182438 | 11 | 264 | 3.2 | 4.8 | 0.00 | 0.00 | 0.00 | 57 | 1004.3 |
| 20260503181935 | 10 | 318 | 4.8 | 6.4 | 0.00 | 0.00 | 0.00 | 60 | 1004.3 |
| 20260503181432 | 10 | 339 | 9.7 | 16.1 | 0.00 | 0.00 | 0.00 | 60 | 1004.3 |
| 20260503180928 | 10 | 57 | 6.4 | 14.5 | 0.00 | 0.00 | 0.00 | 62 | 1004.3 |
| 20260503180427 | 10 | 263 | 3.2 | 3.2 | 0.00 | 0.00 | 0.00 | 61 | 1004.4 |
| 20260503175923 | 10 | 325 | 9.7 | 14.5 | 0.00 | 0.00 | 0.00 | 63 | 1004.4 |
| 20260503175421 | 10 | 311 | 3.2 | 4.8 | 0.00 | 0.00 | 0.00 | 64 | 1004.4 |
| 20260503174916 | 10 | 232 | 3.2 | 4.8 | 0.00 | 0.00 | 0.00 | 66 | 1004.4 |
| 20260503174415 | 10 | 222 | 3.2 | 4.8 | 0.00 | 0.00 | 0.00 | 67 | 1004.4 |
| 20260503173909 | 10 | 288 | 4.8 | 6.4 | 0.00 | 0.00 | 0.00 | 67 | 1004.6 |
| 20260503173405 | 9 | 14 | 3.2 | 3.2 | 0.00 | 0.00 | 0.00 | 68 | 1004.5 |
| 20260503172902 | 8 | 8 | 1.6 | 3.2 | 0.00 | 0.00 | 0.00 | 69 | 1004.5 |
| 20260503172400 | 8 | 254 | 4.8 | 4.8 | 0.00 | 0.00 | 0.00 | 71 | 1004.4 |
| 20260503171856 | 8 | 344 | 6.4 | 9.7 | 0.00 | 0.00 | 0.00 | 70 | 1004.6 |
| 20260503171353 | 8 | 341 | 0.0 | 1.6 | 0.00 | 0.00 | 0.00 | 70 | 1004.7 |
| 20260503170850 | 8 | 306 | 6.4 | 11.3 | 0.00 | 0.00 | 0.00 | 70 | 1004.7 |
| 20260503170346 | 8 | 285 | 0.0 | 1.6 | 0.00 | 0.00 | 0.00 | 71 | 1004.7 |
| 20260503150739 | 7 | 269 | 4.8 | 6.4 | 0.00 | 0.00 | 0.00 | 84 | 1004.9 |
| 20260503150235 | 7 | 37 | 6.4 | 6.4 | 0.00 | 0.00 | 0.00 | 84 | 1005.1 |
| 20260503140159 | 6 | 317 | 4.8 | 6.4 | 0.00 | 0.00 | 0.00 | 92 | 1005.7 |
| 20260503131129 | 5 | 310 | 4.8 | 6.4 | 0.00 | 0.00 | 0.00 | 95 | 1006.1 |
| 20260503130626 | 5 | 292 | 1.6 | 3.2 | 0.00 | 0.00 | 0.00 | 96 | 1006.4 |
| 20260503130124 | 6 | 313 | 3.2 | 4.8 | 0.00 | 0.00 | 0.00 | 96 | 1006.2 |
| 20260503110511 | 5 | 31 | 1.6 | 1.6 | 0.00 | 0.00 | 0.00 | 99 | 1006.9 |
| 20260503090356 | 5 | 296 | 0.0 | 0.0 | 0.00 | 0.00 | 0.00 | 99 | 1007.3 |
| 20260503081323 | 5 | 286 | 0.0 | 0.0 | 0.00 | 0.00 | 0.00 | 99 | 1008.1 |
| 20260503080820 | 5 | 321 | 0.0 | 0.0 | 0.00 | 0.00 | 0.00 | 99 | 1008.2 |
| 20260503080317 | 5 | 328 | 0.0 | 0.0 | 0.00 | 0.00 | 0.00 | 99 | 1008.0 |
| 20260503072753 | 5 | 284 | 0.0 | 0.0 | 0.00 | 0.00 | 0.00 | 99 | 1008.2 |
| 20260503072251 | 5 | 303 | 0.0 | 0.0 | 0.00 | 0.00 | 0.00 | 99 | 1008.0 |
| 20260503071746 | 5 | 290 | 1.6 | 1.6 | 0.00 | 0.00 | 0.00 | 99 | 1008.0 |
| 20260503071244 | 5 | 322 | 0.0 | 1.6 | 0.00 | 0.00 | 0.00 | 99 | 1008.1 |
| 20260503070740 | 5 | 304 | 1.6 | 3.2 | 0.00 | 0.00 | 0.00 | 99 | 1008.2 |
| 20260503070239 | 5 | 297 | 1.6 | 1.6 | 0.00 | 0.00 | 0.00 | 99 | 1008.1 |